INMARSAT 4-F1

Last updated on Fri Dec 19 2025 00:02:49 GMT+0000 (Coordinated Universal Time)

1 28628U 05009A 25352.44655939 .00000053 00000+0 00000+0 0 9998 2 28628 4.9254 42.6104 0002519 232.4102 151.1641 1.00272512 75865
UTC large
Height (km)
Speed (km/s)
/
Latitude / Longitude
Inclination (degrees)
Orbital Period (minutes)
Azimuth
Elevation
Range (km)
Doppler Factor

Next 0 passes for location: London (51.5072 / 0.1276)

Sorry there are no passes over London.